,,Stat6,,Stat2,,Stat8,,Stat9,,Stat10,,Wind1,,Wind1,
time,status,PA1M_AVG,status,PR1M_SUM,status,RH1M_AVG,status,SR1M_AVG,status,TA1M_AVG,status,W1dAve1m,status,W1sAve1m,
2006-02-05, 00:00:00,VALID,919.327,VALID,0,VALID,90.2725,VALID,-0.0339617,VALID,20.899,VALID,110,VALID,1.46589,
2006-02-05, 00:01:00,VALID,919.341,VALID,0,VALID,90.1644,VALID,-0.0169808,VALID,20.9184,VALID,112,VALID,1.45352,
2006-02-05, 00:02:00,VALID,919.35,VALID,0,VALID,90.1517,VALID,0,VALID,20.9116,VALID,104,VALID,1.3923,
2006-02-05, 00:03:00,VALID,919.363,VALID,0,VALID,90.4708,VALID,-0.0169808,VALID,20.9116,VALID,90,VALID,1.69668,
2006-02-05, 00:04:00,VALID,919.361,VALID,0,VALID,90.9299,VALID,-0.0509425,VALID,20.8666,VALID,84,VALID,1.56323,
2006-02-05, 00:05:00,VALID,919.364,VALID,0,VALID,91.5148,VALID,-0.0169808,VALID,20.8152,VALID,104,VALID,1.06632,
2006-02-05, 00:06:00,VALID,919.344,VALID,0,VALID,91.9281,VALID,0,VALID,20.7497,VALID,122,VALID,1.14741,
2006-02-05, 00:07:00,VALID,919.336,VALID,0,VALID,92.1862,VALID,0.0849042,VALID,20.7134,VALID,129,VALID,1.23524,
2006-02-05, 00:08:00,VALID,919.33,VALID,0,VALID,92.3299,VALID,0.0679233,VALID,20.6517,VALID,109,VALID,1.37028,
2006-02-05, 00:09:00,VALID,919.338,VALID,0,VALID,92.8017,VALID,0.0509425,VALID,20.6231,VALID,103,VALID,0.614901,
2006-02-05, 00:10:00,VALID,919.366,VALID,0,VALID,92.9924,VALID,0.0509425,VALID,20.5614,VALID,117,VALID,0.925199,
2006-02-05, 00:11:00,VALID,919.378,VALID,0,VALID,93.276,VALID,0.0679233,VALID,20.5289,VALID,45,VALID,0.650618,
2006-02-05, 00:12:00,VALID,919.41,VALID,0.2,VALID,94.1115,VALID,0.0679233,VALID,20.5256,VALID,21,VALID,1.29142,
2006-02-05, 00:13:00,VALID,919.404,VALID,0.2,VALID,94.4039,VALID,0.0849042,VALID,20.4771,VALID,13,VALID,0.958534,
2006-02-05, 00:14:00,VALID,919.406,VALID,0.2,VALID,95.1694,VALID,0.0509425,VALID,20.3961,VALID,32,VALID,0.891555,
2006-02-05, 00:15:00,VALID,919.393,VALID,0.2,VALID,95.6132,VALID,0.118866,VALID,20.2832,VALID,42,VALID,1.09847,
2006-02-05, 00:16:00,VALID,919.38,VALID,0.2,VALID,96.0061,VALID,0.0679233,VALID,20.1768,VALID,42,VALID,0.905705,
2006-02-05, 00:17:00,VALID,919.351,VALID,0,VALID,96.2172,VALID,0.0849042,VALID,20.1057,VALID,84,VALID,0.650347,
2006-02-05, 00:18:00,VALID,919.349,VALID,0,VALID,96.4932,VALID,0.0679233,VALID,20.0796,VALID,84,VALID,0.30221,
2006-02-05, 00:19:00,VALID,919.344,VALID,0,VALID,96.6598,VALID,0,VALID,20.0637,VALID,84,VALID,0.347917,
2006-02-05, 00:20:00,VALID,919.344,VALID,0.2,VALID,96.8314,VALID,0.0679233,VALID,20.0515,VALID,84,VALID,0.336483,
2006-02-05, 00:21:00,VALID,919.347,VALID,0,VALID,96.9662,VALID,0.0339617,VALID,19.9993,VALID,84,VALID,0.403011,
2006-02-05, 00:22:00,VALID,919.37,VALID,0,VALID,97.5562,VALID,-0.0679233,VALID,19.9938,VALID,84,VALID,0.296094,
2006-02-05, 00:23:00,VALID,919.386,VALID,0,VALID,97.9542,VALID,-0.0339617,VALID,20.0043,VALID,84,VALID,0.0455729,
2006-02-05, 00:24:00,VALID,919.383,VALID,0,VALID,97.9657,VALID,-0.0509425,VALID,19.9814,VALID,84,VALID,0,
2006-02-05, 00:25:00,VALID,919.371,VALID,0,VALID,98.178,VALID,-0.0679233,VALID,19.9687,VALID,84,VALID,0,
2006-02-05, 00:26:00,VALID,919.359,VALID,0,VALID,98.379,VALID,-0.0509425,VALID,19.9722,VALID,84,VALID,0,
2006-02-05, 00:27:00,VALID,919.361,VALID,0.2,VALID,98.5137,VALID,-0.0339617,VALID,19.9687,VALID,84,VALID,0,
2006-02-05, 00:28:00,VALID,919.333,VALID,0,VALID,98.6231,VALID,-0.0339617,VALID,19.9754,VALID,84,VALID,0,
2006-02-05, 00:29:00,VALID,919.321,VALID,0,VALID,98.2225,VALID,-0.0509425,VALID,19.9364,VALID,84,VALID,0.168445,
2006-02-05, 00:30:00,VALID,919.291,VALID,0,VALID,98.2849,VALID,-0.0679233,VALID,19.9076,VALID,102,VALID,0.571221,
2006-02-05, 00:31:00,VALID,919.278,VALID,0,VALID,98.4743,VALID,-0.0679233,VALID,19.9011,VALID,148,VALID,0.919085,
2006-02-05, 00:32:00,VALID,919.247,VALID,0,VALID,98.5392,VALID,-0.0679233,VALID,19.8817,VALID,150,VALID,0.964935,
2006-02-05, 00:33:00,VALID,919.224,VALID,0,VALID,98.7058,VALID,-0.0849042,VALID,19.8688,VALID,163,VALID,0.896839,
2006-02-05, 00:34:00,VALID,919.22,VALID,0,VALID,98.7986,VALID,-0.0679233,VALID,19.8526,VALID,167,VALID,1.17454,
2006-02-05, 00:35:00,VALID,919.224,VALID,0,VALID,98.8075,VALID,-0.0339617,VALID,19.8429,VALID,167,VALID,0.835565,
2006-02-05, 00:36:00,VALID,919.228,VALID,0,VALID,98.8774,VALID,-0.0849042,VALID,19.8364,VALID,166,VALID,0.788896,
2006-02-05, 00:37:00,VALID,919.213,VALID,0,VALID,98.8749,VALID,-0.0339617,VALID,19.8424,VALID,168,VALID,0.789249,
2006-02-05, 00:38:00,VALID,919.226,VALID,0,VALID,98.8253,VALID,0,VALID,19.8327,VALID,169,VALID,1.05869,
2006-02-05, 00:39:00,VALID,919.217,VALID,0,VALID,98.7655,VALID,-0.0169808,VALID,19.8332,VALID,166,VALID,1.20032,
2006-02-05, 00:40:00,VALID,919.228,VALID,0,VALID,98.6969,VALID,0,VALID,19.8399,VALID,166,VALID,1.23531,
2006-02-05, 00:41:00,VALID,919.209,VALID,0,VALID,98.7617,VALID,0,VALID,19.8369,VALID,156,VALID,1.05868,
2006-02-05, 00:42:00,VALID,919.196,VALID,0,VALID,98.8024,VALID,-0.0169808,VALID,19.82,VALID,171,VALID,1.2065,
2006-02-05, 00:43:00,VALID,919.189,VALID,0,VALID,98.9563,VALID,-0.0169808,VALID,19.8071,VALID,163,VALID,0.630335,
2006-02-05, 00:44:00,VALID,919.164,VALID,0,VALID,99.0707,VALID,0,VALID,19.8041,VALID,164,VALID,1.00472,
2006-02-05, 00:45:00,VALID,919.161,VALID,0,VALID,99.203,VALID,-0.0169808,VALID,19.7817,VALID,176,VALID,1.0082,
2006-02-05, 00:46:00,VALID,919.149,VALID,0,VALID,99.3225,VALID,-0.0169808,VALID,19.7457,VALID,171,VALID,0.933222,
2006-02-05, 00:47:00,VALID,919.149,VALID,0,VALID,99.3886,VALID,-0.0169808,VALID,19.7392,VALID,176,VALID,0.99442,
2006-02-05, 00:48:00,VALID,919.149,VALID,0,VALID,99.4891,VALID,-0.0169808,VALID,19.7097,VALID,171,VALID,0.797476,
2006-02-05, 00:49:00,VALID,919.148,VALID,0,VALID,99.5425,VALID,0.0169808,VALID,19.7069,VALID,170,VALID,0.732922,
2006-02-05, 00:50:00,VALID,919.142,VALID,0,VALID,99.5946,VALID,0,VALID,19.7037,VALID,170,VALID,0.488281,
2006-02-05, 00:51:00,VALID,919.124,VALID,0,VALID,99.6849,VALID,-0.0169808,VALID,19.6972,VALID,170,VALID,0.272294,
2006-02-05, 00:52:00,VALID,919.112,VALID,0,VALID,99.7548,VALID,0,VALID,19.7141,VALID,170,VALID,0.316964,
2006-02-05, 00:53:00,VALID,919.093,VALID,0,VALID,99.8349,VALID,-0.0169808,VALID,19.7131,VALID,170,VALID,0.310369,
2006-02-05, 00:54:00,VALID,919.074,VALID,0,VALID,99.8108,VALID,0.0339617,VALID,19.7096,VALID,170,VALID,0.669398,
2006-02-05, 00:55:00,VALID,919.063,VALID,0.2,VALID,99.7892,VALID,-0.0169808,VALID,19.7136,VALID,169,VALID,0.38529,
2006-02-05, 00:56:00,VALID,919.038,VALID,0,VALID,99.8527,VALID,0,VALID,19.7198,VALID,154,VALID,0.399164,
2006-02-05, 00:57:00,VALID,919.031,VALID,0,VALID,99.8489,VALID,-0.0509425,VALID,19.7069,VALID,149,VALID,0.49782,
2006-02-05, 00:58:00,VALID,919.009,VALID,0,VALID,99.8438,VALID,-0.0509425,VALID,19.7136,VALID,152,VALID,0.454492,
2006-02-05, 00:59:00,VALID,919.005,VALID,0,VALID,99.8438,VALID,0,VALID,19.7236,VALID,168,VALID,0.320313,
2006-02-05, 01:00:00,VALID,918.989,VALID,0,VALID,99.7447,VALID,-0.0169808,VALID,19.7464,VALID,168,VALID,0.429492,
2006-02-05, 01:01:00,VALID,918.993,VALID,0,VALID,99.5692,VALID,-0.0169808,VALID,19.7459,VALID,168,VALID,0.43022,
2006-02-05, 01:02:00,VALID,918.987,VALID,0,VALID,99.4484,VALID,0,VALID,19.7755,VALID,168,VALID,0.291667,
2006-02-05, 01:03:00,VALID,918.99,VALID,0,VALID,99.2869,VALID,-0.0169808,VALID,19.7815,VALID,168,VALID,0.27468,
2006-02-05, 01:04:00,VALID,918.99,VALID,0,VALID,99.3187,VALID,-0.0169808,VALID,19.8044,VALID,150,VALID,0.317827,
2006-02-05, 01:05:00,VALID,918.993,VALID,0,VALID,99.3416,VALID,0.0169808,VALID,19.8205,VALID,94,VALID,0.546875,
2006-02-05, 01:06:00,VALID,918.982,VALID,0,VALID,99.3899,VALID,-0.0509425,VALID,19.8173,VALID,60,VALID,0.973366,
2006-02-05, 01:07:00,VALID,918.964,VALID,0,VALID,99.353,VALID,-0.0169808,VALID,19.7974,VALID,38,VALID,1.27852,
2006-02-05, 01:08:00,VALID,918.941,VALID,0,VALID,99.3861,VALID,0,VALID,19.7716,VALID,35,VALID,1.18359,
2006-02-05, 01:09:00,VALID,918.914,VALID,0,VALID,99.3759,VALID,0,VALID,19.7522,VALID,29,VALID,1.03181,
2006-02-05, 01:10:00,VALID,918.894,VALID,0,VALID,99.4624,VALID,-0.0339617,VALID,19.7395,VALID,24,VALID,0.936914,
2006-02-05, 01:11:00,VALID,918.871,VALID,0,VALID,99.4433,VALID,0,VALID,19.7397,VALID,30,VALID,0.841146,
2006-02-05, 01:12:00,VALID,918.841,VALID,0,VALID,99.4217,VALID,0,VALID,19.7497,VALID,35,VALID,0.934261,
2006-02-05, 01:13:00,VALID,918.807,VALID,0,VALID,99.2322,VALID,-0.0169808,VALID,19.7596,VALID,40,VALID,0.713194,
2006-02-05, 01:14:00,VALID,918.729,VALID,0,VALID,99.2208,VALID,0,VALID,19.7527,VALID,40,VALID,0.0828887,
2006-02-05, 01:15:00,VALID,918.688,VALID,0,VALID,99.2932,VALID,0,VALID,19.8049,VALID,40,VALID,0.0718369,
2006-02-05, 01:16:00,VALID,918.641,VALID,0,VALID,99.0148,VALID,-0.0339617,VALID,19.7982,VALID,40,VALID,0.138021,
2006-02-05, 01:17:00,VALID,918.618,VALID,0,VALID,98.9105,VALID,-0.0169808,VALID,19.8111,VALID,57,VALID,0.547554,
2006-02-05, 01:18:00,VALID,918.594,VALID,0,VALID,98.7821,VALID,0,VALID,19.8011,VALID,71,VALID,0.45141,
2006-02-05, 01:19:00,VALID,918.588,VALID,0,VALID,98.7706,VALID,0,VALID,19.8074,VALID,71,VALID,0.619606,
2006-02-05, 01:20:00,VALID,918.583,VALID,0,VALID,98.8736,VALID,-0.0169808,VALID,19.8108,VALID,71,VALID,0.48266,
2006-02-05, 01:21:00,VALID,918.576,VALID,0,VALID,98.9436,VALID,-0.0169808,VALID,19.8205,VALID,71,VALID,0.3621,
2006-02-05, 01:22:00,VALID,918.56,VALID,0,VALID,98.9563,VALID,-0.0339617,VALID,19.8143,VALID,69,VALID,0.462426,
2006-02-05, 01:23:00,VALID,918.553,VALID,0,VALID,98.9817,VALID,-0.0339617,VALID,19.7917,VALID,16,VALID,0.754954,
2006-02-05, 01:24:00,VALID,918.528,VALID,0,VALID,98.88,VALID,-0.0169808,VALID,19.7432,VALID,16,VALID,0.632068,
2006-02-05, 01:25:00,VALID,918.495,VALID,0,VALID,98.9664,VALID,0,VALID,19.7266,VALID,16,VALID,0.303199,
2006-02-05, 01:26:00,VALID,918.459,VALID,0,VALID,99.1076,VALID,-0.0169808,VALID,19.7333,VALID,16,VALID,0.0388849,
2006-02-05, 01:27:00,VALID,918.414,VALID,0,VALID,99.2093,VALID,-0.0169808,VALID,19.74,VALID,16,VALID,0,
2006-02-05, 01:28:00,VALID,918.375,VALID,0,VALID,99.3072,VALID,-0.0169808,VALID,19.7432,VALID,16,VALID,0.00109012,
2006-02-05, 01:29:00,VALID,918.33,VALID,0,VALID,99.3454,VALID,-0.0339617,VALID,19.7591,VALID,70,VALID,0.463844,
2006-02-05, 01:30:00,VALID,918.312,VALID,0,VALID,99.2437,VALID,-0.0509425,VALID,19.7367,VALID,132,VALID,0.799361,
2006-02-05, 01:31:00,VALID,918.307,VALID,0,VALID,99.0923,VALID,-0.0169808,VALID,19.7211,VALID,138,VALID,0.958757,
2006-02-05, 01:32:00,VALID,918.311,VALID,0,VALID,99.1521,VALID,-0.0679233,VALID,19.6786,VALID,133,VALID,1.1689,
2006-02-05, 01:33:00,VALID,918.315,VALID,0,VALID,99.2754,VALID,-0.0169808,VALID,19.6721,VALID,116,VALID,1.15282,
2006-02-05, 01:34:00,VALID,918.341,VALID,0,VALID,99.3619,VALID,-0.0509425,VALID,19.6333,VALID,97,VALID,0.643973,
2006-02-05, 01:35:00,VALID,918.335,VALID,0,VALID,99.4408,VALID,-0.0339617,VALID,19.6239,VALID,87,VALID,0.749619,
2006-02-05, 01:36:00,VALID,918.343,VALID,0,VALID,99.6022,VALID,0.0169808,VALID,19.6104,VALID,44,VALID,0.728423,
2006-02-05, 01:37:00,VALID,918.347,VALID,0,VALID,99.7091,VALID,0.0849042,VALID,19.6154,VALID,18,VALID,1.12118,
2006-02-05, 01:38:00,VALID,918.331,VALID,0,VALID,99.6938,VALID,0.0339617,VALID,19.606,VALID,14,VALID,1.39368,
2006-02-05, 01:39:00,VALID,918.331,VALID,0,VALID,99.6658,VALID,0.0169808,VALID,19.5776,VALID,14,VALID,1.40134,
2006-02-05, 01:40:00,VALID,918.33,VALID,0,VALID,99.6633,VALID,0.0169808,VALID,19.5481,VALID,29,VALID,0.965843,
2006-02-05, 01:41:00,VALID,918.342,VALID,0,VALID,99.7294,VALID,0.0849042,VALID,19.519,VALID,30,VALID,1.28249,
2006-02-05, 01:42:00,VALID,918.346,VALID,0,VALID,99.897,VALID,0.0509425,VALID,19.4864,VALID,24,VALID,1.63935,
2006-02-05, 01:43:00,VALID,918.346,VALID,0,VALID,100,VALID,0.0679233,VALID,19.4804,VALID,31,VALID,1.05246,
2006-02-05, 01:44:00,VALID,918.322,VALID,0,VALID,100,VALID,0,VALID,19.4578,VALID,65,VALID,1.12778,
2006-02-05, 01:45:00,VALID,918.294,VALID,0,VALID,100,VALID,0.0169808,VALID,19.4449,VALID,53,VALID,1.35423,
2006-02-05, 01:46:00,VALID,918.278,VALID,0,VALID,100,VALID,-0.0679233,VALID,19.4337,VALID,57,VALID,1.26199,
2006-02-05, 01:47:00,VALID,918.284,VALID,0,VALID,100,VALID,-0.0849042,VALID,19.4556,VALID,63,VALID,1.07374,
2006-02-05, 01:48:00,VALID,918.287,VALID,0,VALID,100,VALID,-0.0339617,VALID,19.4523,VALID,114,VALID,1,
2006-02-05, 01:49:00,VALID,918.314,VALID,0,VALID,100,VALID,-0.0679233,VALID,19.4787,VALID,84,VALID,0.753815,
2006-02-05, 01:50:00,VALID,918.327,VALID,0,VALID,100,VALID,-0.0679233,VALID,19.5013,VALID,92,VALID,0.212976,
2006-02-05, 01:51:00,VALID,918.356,VALID,0,VALID,100,VALID,0,VALID,19.5135,VALID,92,VALID,0.00545058,
2006-02-05, 01:52:00,VALID,918.375,VALID,0,VALID,100,VALID,-0.0339617,VALID,19.5232,VALID,4,VALID,0.65282,
2006-02-05, 01:53:00,VALID,918.382,VALID,0,VALID,100,VALID,-0.0169808,VALID,19.5172,VALID,331,VALID,0.721058,
2006-02-05, 01:54:00,VALID,918.389,VALID,0,VALID,100,VALID,-0.0849042,VALID,19.5015,VALID,331,VALID,0.393415,
2006-02-05, 01:55:00,VALID,918.351,VALID,0,VALID,100,VALID,-0.0679233,VALID,19.5045,VALID,313,VALID,0.649414,
2006-02-05, 01:56:00,VALID,918.332,VALID,0,VALID,100,VALID,-0.0339617,VALID,19.508,VALID,305,VALID,0.454883,
2006-02-05, 01:57:00,VALID,918.294,VALID,0,VALID,100,VALID,-0.0339617,VALID,19.5107,VALID,305,VALID,0.0507813,
2006-02-05, 01:58:00,VALID,918.26,VALID,0,VALID,100,VALID,-0.0679233,VALID,19.5366,VALID,305,VALID,0,
2006-02-05, 01:59:00,VALID,918.231,VALID,0,VALID,100,VALID,-0.0509425,VALID,19.5428,VALID,305,VALID,0.0989583,
2006-02-05, 02:00:00,VALID,918.227,VALID,0,VALID,100,VALID,-0.0679233,VALID,19.5595,VALID,305,VALID,0.338728,
2006-02-05, 02:01:00,VALID,918.241,VALID,0,VALID,100,VALID,-0.0509425,VALID,19.5654,VALID,284,VALID,0.491071,
2006-02-05, 02:02:00,VALID,918.237,VALID,0,VALID,100,VALID,-0.0679233,VALID,19.5821,VALID,178,VALID,0.47311,
2006-02-05, 02:03:00,VALID,918.249,VALID,0,VALID,100,VALID,0,VALID,19.5781,VALID,175,VALID,0.599085,
2006-02-05, 02:04:00,VALID,918.258,VALID,0,VALID,100,VALID,-0.0339617,VALID,19.5846,VALID,175,VALID,0.521839,
2006-02-05, 02:05:00,VALID,918.273,VALID,0,VALID,100,VALID,-0.0339617,VALID,19.5749,VALID,175,VALID,0.549479,
2006-02-05, 02:06:00,VALID,918.289,VALID,0,VALID,100,VALID,-0.0339617,VALID,19.5784,VALID,175,VALID,0.563802,
2006-02-05, 02:07:00,VALID,918.294,VALID,0,VALID,100,VALID,0.0509425,VALID,19.5737,VALID,174,VALID,0.384375,
2006-02-05, 02:08:00,VALID,918.287,VALID,0,VALID,100,VALID,0.0509425,VALID,19.5737,VALID,147,VALID,0.613814,
2006-02-05, 02:09:00,VALID,918.273,VALID,0,VALID,100,VALID,0.0339617,VALID,19.5476,VALID,147,VALID,0.589571,
2006-02-05, 02:10:00,VALID,918.247,VALID,0,VALID,100,VALID,0.0849042,VALID,19.5349,VALID,144,VALID,0.709635,
2006-02-05, 02:11:00,VALID,918.219,VALID,0,VALID,100,VALID,0.0509425,VALID,19.5418,VALID,138,VALID,0.870206,
2006-02-05, 02:12:00,VALID,918.191,VALID,0,VALID,100,VALID,0.0509425,VALID,19.5257,VALID,131,VALID,1.03852,
2006-02-05, 02:13:00,VALID,918.175,VALID,0,VALID,100,VALID,0.0509425,VALID,19.516,VALID,122,VALID,1.11555,
2006-02-05, 02:14:00,VALID,918.158,VALID,0,VALID,100,VALID,0.0679233,VALID,19.4988,VALID,119,VALID,0.953125,
2006-02-05, 02:15:00,VALID,918.137,VALID,0,VALID,100,VALID,0.0339617,VALID,19.5128,VALID,122,VALID,0.678925,
2006-02-05, 02:16:00,VALID,918.119,VALID,0,VALID,100,VALID,0.0339617,VALID,19.509,VALID,123,VALID,0.645774,
2006-02-05, 02:17:00,VALID,918.097,VALID,0,VALID,100,VALID,0.101885,VALID,19.5224,VALID,118,VALID,0.987043,
2006-02-05, 02:18:00,VALID,918.082,VALID,0,VALID,100,VALID,0.0509425,VALID,19.516,VALID,110,VALID,1.133,
2006-02-05, 02:19:00,VALID,918.058,VALID,0,VALID,100,VALID,0.0509425,VALID,19.5224,VALID,105,VALID,1.10974,
2006-02-05, 02:20:00,VALID,918.042,VALID,0,VALID,100,VALID,0.0679233,VALID,19.5224,VALID,97,VALID,0.927148,
2006-02-05, 02:21:00,VALID,918.024,VALID,0,VALID,100,VALID,0.0509425,VALID,19.5416,VALID,81,VALID,1.04581,
2006-02-05, 02:22:00,VALID,918.005,VALID,0,VALID,100,VALID,-0.0339617,VALID,19.5659,VALID,69,VALID,1.25636,
2006-02-05, 02:23:00,VALID,917.999,VALID,0,VALID,100,VALID,-0.0169808,VALID,19.5585,VALID,51,VALID,1.35556,
2006-02-05, 02:24:00,VALID,917.972,VALID,0,VALID,100,VALID,0,VALID,19.5595,VALID,41,VALID,1.30234,
2006-02-05, 02:25:00,VALID,917.958,VALID,0,VALID,100,VALID,-0.0169808,VALID,19.5528,VALID,34,VALID,1.1981,
2006-02-05, 02:26:00,VALID,917.93,VALID,0,VALID,100,VALID,0.0169808,VALID,19.556,VALID,26,VALID,0.904344,
2006-02-05, 02:27:00,VALID,917.906,VALID,0,VALID,100,VALID,-0.0339617,VALID,19.5396,VALID,25,VALID,1.15739,
2006-02-05, 02:28:00,VALID,917.888,VALID,0,VALID,100,VALID,0,VALID,19.5232,VALID,32,VALID,0.734201,
2006-02-05, 02:29:00,VALID,917.869,VALID,0,VALID,100,VALID,-0.0169808,VALID,19.517,VALID,28,VALID,0.451172,
2006-02-05, 02:30:00,VALID,917.848,VALID,0,VALID,100,VALID,-0.0339617,VALID,19.5105,VALID,29,VALID,0.522195,
2006-02-05, 02:31:00,VALID,917.833,VALID,0,VALID,100,VALID,-0.0509425,VALID,19.5013,VALID,35,VALID,0.224826,
2006-02-05, 02:32:00,VALID,917.822,VALID,0,VALID,100,VALID,-0.0169808,VALID,19.4946,VALID,35,VALID,0.0951172,
2006-02-05, 02:33:00,VALID,917.807,VALID,0,VALID,100,VALID,0.0169808,VALID,19.507,VALID,35,VALID,0.277539,
2006-02-05, 02:34:00,VALID,917.799,VALID,0,VALID,100,VALID,-0.0339617,VALID,19.4876,VALID,21,VALID,0.316707,
2006-02-05, 02:35:00,VALID,917.793,VALID,0,VALID,100,VALID,-0.0339617,VALID,19.4941,VALID,330,VALID,0.570313,
2006-02-05, 02:36:00,VALID,917.808,VALID,0,VALID,100,VALID,0,VALID,19.5068,VALID,327,VALID,0.555831,
2006-02-05, 02:37:00,VALID,917.826,VALID,0,VALID,100,VALID,0.0339617,VALID,19.5028,VALID,327,VALID,0.577762,
2006-02-05, 02:38:00,VALID,917.828,VALID,0,VALID,100,VALID,0.0679233,VALID,19.4799,VALID,327,VALID,0.345846,
2006-02-05, 02:39:00,VALID,917.849,VALID,0,VALID,100,VALID,0.0509425,VALID,19.4867,VALID,351,VALID,0.380022,
2006-02-05, 02:40:00,VALID,917.883,VALID,0,VALID,100,VALID,0.0679233,VALID,19.4862,VALID,11,VALID,0.723189,
2006-02-05, 02:41:00,VALID,917.898,VALID,0,VALID,100,VALID,0.0849042,VALID,19.474,VALID,11,VALID,0.754297,
2006-02-05, 02:42:00,VALID,917.907,VALID,0,VALID,100,VALID,0.0339617,VALID,19.4673,VALID,10,VALID,0.392805,
2006-02-05, 02:43:00,VALID,917.915,VALID,0,VALID,100,VALID,0.0679233,VALID,19.4479,VALID,5,VALID,0.393164,
2006-02-05, 02:44:00,VALID,917.894,VALID,0,VALID,100,VALID,0.101885,VALID,19.4548,VALID,317,VALID,0.521234,
2006-02-05, 02:45:00,VALID,917.884,VALID,0,VALID,100,VALID,0.0849042,VALID,19.4476,VALID,316,VALID,0.206745,
2006-02-05, 02:46:00,VALID,917.854,VALID,0,VALID,100,VALID,0.0849042,VALID,19.4479,VALID,316,VALID,0.257986,
2006-02-05, 02:47:00,VALID,917.828,VALID,0,VALID,100,VALID,0.0679233,VALID,19.4673,VALID,316,VALID,0,
2006-02-05, 02:48:00,VALID,917.799,VALID,0,VALID,100,VALID,0.0849042,VALID,19.4668,VALID,316,VALID,0.00114329,
2006-02-05, 02:49:00,VALID,917.772,VALID,0,VALID,100,VALID,0.0679233,VALID,19.4702,VALID,316,VALID,0.000186012,
2006-02-05, 02:50:00,VALID,917.745,VALID,0,VALID,100,VALID,0.0679233,VALID,19.4797,VALID,4,VALID,0.508956,
2006-02-05, 02:51:00,VALID,917.729,VALID,0,VALID,100,VALID,0.0509425,VALID,19.4961,VALID,44,VALID,0.722384,
2006-02-05, 02:52:00,VALID,917.72,VALID,0,VALID,100,VALID,-0.0679233,VALID,19.5006,VALID,44,VALID,0.909896,
2006-02-05, 02:53:00,VALID,917.723,VALID,0,VALID,100,VALID,-0.0169808,VALID,19.4886,VALID,48,VALID,1.0823,
2006-02-05, 02:54:00,VALID,917.738,VALID,0,VALID,100,VALID,0,VALID,19.4618,VALID,50,VALID,1.08194,
2006-02-05, 02:55:00,VALID,917.736,VALID,0,VALID,100,VALID,-0.0849042,VALID,19.4459,VALID,51,VALID,1.00877,
2006-02-05, 02:56:00,VALID,917.745,VALID,0,VALID,100,VALID,-0.0849042,VALID,19.4295,VALID,40,VALID,0.722996,
2006-02-05, 02:57:00,VALID,917.746,VALID,0,VALID,100,VALID,0,VALID,19.4262,VALID,62,VALID,0.700586,
2006-02-05, 02:58:00,VALID,917.752,VALID,0,VALID,100,VALID,-0.0169808,VALID,19.42,VALID,62,VALID,0.680398,
2006-02-05, 02:59:00,VALID,917.748,VALID,0,VALID,100,VALID,0,VALID,19.4165,VALID,63,VALID,0.34375,
2006-02-05, 03:00:00,VALID,917.749,VALID,0,VALID,100,VALID,-0.0169808,VALID,19.4232,VALID,63,VALID,0.188408,
2006-02-05, 03:01:00,VALID,917.741,VALID,0,VALID,100,VALID,-0.0339617,VALID,19.4426,VALID,63,VALID,0.505664,
2006-02-05, 03:02:00,VALID,917.737,VALID,0,VALID,100,VALID,-0.0339617,VALID,19.4523,VALID,66,VALID,0.579975,
2006-02-05, 03:03:00,VALID,917.739,VALID,0,VALID,100,VALID,-0.0169808,VALID,19.4648,VALID,66,VALID,0.645531,
2006-02-05, 03:04:00,VALID,917.723,VALID,0,VALID,100,VALID,-0.0339617,VALID,19.4752,VALID,66,VALID,0.679688,
2006-02-05, 03:05:00,VALID,917.73,VALID,0,VALID,100,VALID,-0.0339617,VALID,19.475,VALID,66,VALID,0.398065,
2006-02-05, 03:06:00,VALID,917.728,VALID,0,VALID,100,VALID,-0.0169808,VALID,19.475,VALID,66,VALID,0.331214,
2006-02-05, 03:07:00,VALID,917.732,VALID,0,VALID,100,VALID,-0.0339617,VALID,19.4914,VALID,66,VALID,0.338141,
2006-02-05, 03:08:00,VALID,917.753,VALID,0,VALID,100,VALID,-0.0169808,VALID,19.4879,VALID,66,VALID,0.283537,
2006-02-05, 03:09:00,VALID,917.774,VALID,0,VALID,100,VALID,0,VALID,19.4812,VALID,66,VALID,0.364281,
2006-02-05, 03:10:00,VALID,917.8,VALID,0,VALID,100,VALID,-0.0849042,VALID,19.475,VALID,66,VALID,0.414063,
2006-02-05, 03:11:00,VALID,917.818,VALID,0,VALID,100,VALID,-0.0169808,VALID,19.4817,VALID,66,VALID,0.0925071,
2006-02-05, 03:12:00,VALID,917.817,VALID,0,VALID,100,VALID,0,VALID,19.4782,VALID,66,VALID,0.294271,
2006-02-05, 03:13:00,VALID,917.83,VALID,0,VALID,100,VALID,-0.0339617,VALID,19.4717,VALID,66,VALID,0.592262,
2006-02-05, 03:14:00,VALID,917.837,VALID,0,VALID,100,VALID,-0.0339617,VALID,19.4817,VALID,66,VALID,0.441229,
2006-02-05, 03:15:00,VALID,917.826,VALID,0,VALID,100,VALID,0,VALID,19.4884,VALID,66,VALID,0.483487,
2006-02-05, 03:16:00,VALID,917.826,VALID,0,VALID,100,VALID,0,VALID,19.4784,VALID,66,VALID,0.355378,
2006-02-05, 03:17:00,VALID,917.851,VALID,0,VALID,100,VALID,0.0169808,VALID,19.4807,VALID,67,VALID,0.357031,
2006-02-05, 03:18:00,VALID,917.867,VALID,0,VALID,100,VALID,0,VALID,19.5006,VALID,67,VALID,0.10191,
2006-02-05, 03:19:00,VALID,917.886,VALID,0,VALID,100,VALID,0,VALID,19.5105,VALID,67,VALID,0.179688,
2006-02-05, 03:20:00,VALID,917.902,VALID,0,VALID,100,VALID,-0.0509425,VALID,19.5234,VALID,67,VALID,0.0438988,
2006-02-05, 03:21:00,VALID,917.91,VALID,0,VALID,100,VALID,-0.0339617,VALID,19.52,VALID,67,VALID,0.015439,
2006-02-05, 03:22:00,VALID,917.939,VALID,0,VALID,100,VALID,-0.0169808,VALID,19.5264,VALID,67,VALID,0.00218023,
2006-02-05, 03:23:00,VALID,917.935,VALID,0,VALID,100,VALID,-0.0339617,VALID,19.5386,VALID,67,VALID,0.0527778,
2006-02-05, 03:24:00,VALID,917.956,VALID,0,VALID,100,VALID,-0.0169808,VALID,19.556,VALID,66,VALID,0.310865,
2006-02-05, 03:25:00,VALID,917.956,VALID,0,VALID,100,VALID,0.0169808,VALID,19.5553,VALID,66,VALID,0,
2006-02-05, 03:26:00,VALID,917.953,VALID,0,VALID,100,VALID,-0.0339617,VALID,19.5523,VALID,66,VALID,0.144436,
2006-02-05, 03:27:00,VALID,917.94,VALID,0,VALID,100,VALID,0,VALID,19.549,VALID,67,VALID,0.265625,
2006-02-05, 03:28:00,VALID,917.932,VALID,0,VALID,100,VALID,-0.0339617,VALID,19.5592,VALID,67,VALID,0.236374,
2006-02-05, 03:29:00,VALID,917.914,VALID,0,VALID,100,VALID,-0.0169808,VALID,19.5525,VALID,70,VALID,0.477896,
2006-02-05, 03:30:00,VALID,917.9,VALID,0,VALID,100,VALID,0,VALID,19.5428,VALID,70,VALID,0.803711,
2006-02-05, 03:31:00,VALID,917.885,VALID,0,VALID,100,VALID,-0.0339617,VALID,19.5068,VALID,205,VALID,0.897866,
2006-02-05, 03:32:00,VALID,917.858,VALID,0,VALID,100,VALID,0,VALID,19.4904,VALID,239,VALID,1.06784,
2006-02-05, 03:33:00,VALID,917.852,VALID,0,VALID,100,VALID,0.0169808,VALID,19.4772,VALID,248,VALID,0.802083,
2006-02-05, 03:34:00,VALID,917.843,VALID,0,VALID,100,VALID,-0.0169808,VALID,19.4807,VALID,251,VALID,0.330669,
2006-02-05, 03:35:00,VALID,917.838,VALID,0,VALID,100,VALID,0.0169808,VALID,19.5006,VALID,251,VALID,0.130382,
2006-02-05, 03:36:00,VALID,917.815,VALID,0,VALID,100,VALID,0,VALID,19.4961,VALID,248,VALID,0.253374,
2006-02-05, 03:37:00,VALID,917.808,VALID,0,VALID,100,VALID,0.101885,VALID,19.5185,VALID,248,VALID,0.0741279,
2006-02-05, 03:38:00,VALID,917.779,VALID,0,VALID,100,VALID,0.0679233,VALID,19.5284,VALID,224,VALID,0.293341,